Terminal Aerodrome Forecast
Issued by NWS Duluth, MN

Home | Current Version | Previous Version | Text Only | Print | Product List | Glossary On
Versions: 1 2 3 4 5 6 7 8 9 10 11 12 13 14 15 16 17 18 19 20 21 22 23 24
000
FTUS43 KDLH 291100 RRA
TAFDLH
TAF
KDLH 291141Z 2912/3012 32009KT P6SM OVC012
     FM292000 27007KT P6SM BKN022 BKN035
      TEMPO 2922/3001 P6SM SCT025 BKN040
     FM300200 25005KT P6SM BKN022 OVC040
     FM300800 25004KT 3SM -RA BR BKN015 OVC025=

USA.gov is the U.S. government's official web portal to all federal, state and local government web resources and services.